This is the latest recevied weather packets stored in our database for station/object WB4ZUT. If no packets are shown the sender has not sent any weather packets the latest 10 day(s).
| Time | Temp. | Humidity | Pressure | Rain* | Wind** | Luminosity | Snow |
|---|---|---|---|---|---|---|---|
| 1777982288 | 17.22° C | 76% | 1008.2 hPa | 0 mm | - | 23 W/m² | - |
| 1777981986 | 17.22° C | 76% | 1008.1 hPa | 0 mm | - | 20 W/m² | - |
| 1777981684 | 17.22° C | 76% | 1008.2 hPa | 0 mm | - | 16 W/m² | - |
| 1777981380 | 17.22° C | 75% | 1007.9 hPa | 0 mm | - | 15 W/m² | - |
| 1777981076 | 17.22° C | 75% | 1008.1 hPa | 0 mm | - | 17 W/m² | - |
| 1777980773 | 17.22° C | 75% | 1008.1 hPa | 0 mm | - | 18 W/m² | - |
| 1777980468 | 17.22° C | 75% | 1008 hPa | 0 mm | - | 13 W/m² | - |
| 1777980167 | 17.22° C | 74% | 1008 hPa | 0 mm | - | 12 W/m² | - |
| 1777979867 | 17.78° C | 74% | 1007.8 hPa | 0 mm | - | 11 W/m² | - |
| 1777979563 | 17.78° C | 73% | 1007.8 hPa | 0 mm | - | 9 W/m² | - |
| 1777979259 | 17.78° C | 73% | 1007.8 hPa | 0 mm | - | 5 W/m² | - |
| 1777978957 | 17.78° C | 72% | 1007.9 hPa | 0 mm | - | 1 W/m² | - |
| 1777978653 | 17.78° C | 71% | 1007.9 hPa | 0 mm | - | 1 W/m² | - |
| 1777978348 | 18.33° C | 71% | 1007.9 hPa | 0 mm | - | 0 W/m² | - |
| 1777978046 | 18.33° C | 71% | 1008.2 hPa | 0 mm | - | 0 W/m² | - |
| 1777977743 | 18.33° C | 70% | 1008.2 hPa | 0 mm | - | 0 W/m² | - |
| 1777977439 | 18.33° C | 70% | 1008.1 hPa | 0 mm | - | 0 W/m² | - |
| 1777977137 | 18.33° C | 69% | 1008.1 hPa | 0 mm | - | 0 W/m² | - |
| 1777976834 | 18.33° C | 69% | 1008.2 hPa | 0 mm | - | 0 W/m² | - |
| 1777976532 | 18.33° C | 69% | 1008.4 hPa | 0 mm | - | 0 W/m² | - |
| 1777976231 | 18.89° C | 68% | 1008.5 hPa | 0 mm | - | 0 W/m² | - |
| 1777975926 | 18.89° C | 67% | 1008 hPa | 0 mm | - | 0 W/m² | - |
| 1777975623 | 18.89° C | 66% | 1007.9 hPa | 0 mm | - | 0 W/m² | - |
| 1777975320 | 18.89° C | 66% | 1007.4 hPa | 0 mm | - | 0 W/m² | - |
| 1777975015 | 18.89° C | 66% | 1007.2 hPa | 0 mm | - | 0 W/m² | - |
* Rain latest hour (hover to see other rain measurements)
** Current wind speed in m/s (hover to see current wind gust speed)